M I D A S
Marine Information and Data Acquisition System
Tripno 316 of the Zeeleeuw from 2002-03-12 07:00:59 to 2002-03-12 18:10:07
Back to CruiseResearch ActivitiesStationsMapUnderway DataData graphs

EquipmentUnitsComments
TimeDGPSUTC
LatitudeDGPSDM.mWGS84
LongitudeDGPSDM.mWGS84
SpeedMeteo Stationm/sRelative wind speed
DirectionMeteo StationdegRelative wind direction
TemperatureMeteo Stationdeg CelciusAir temperature
PressureMeteo StationPaAtmospheric pressure
HumidityMeteo Station%Relative humidity
Missing or incorrect values are displayed as -999
Metereological data collected by the RV Zeeleeuw from 2002-03-12 07:00:59 to 2002-03-12 18:10:07
Time Latitude Longitude Speed Direction Temperature Pressure Humidity
2002-03-12 07:02 51°13.696 2°55.851 1.4 159 8 101440 77
2002-03-12 07:03 51°13.698 2°55.757 1.6 112 8 101440 77
2002-03-12 07:04 51°13.706 2°55.719 1.9 185 8 101440 77
2002-03-12 07:05 51°13.824 2°55.648 2.5 214 8 101440 77
2002-03-12 07:06 51°13.978 2°55.55 2.9 220 8 101440 77
2002-03-12 07:06 51°14.09 2°55.469 0.8 153 8 101440 77
2002-03-12 07:08 51°14.179 2°55.384 0.6 207 8.1 101440 77
2002-03-12 07:09 51°14.286 2°55.224 1.4 257 8.1 101440 77
2002-03-12 07:10 51°14.345 2°55.078 1.3 273 8.2 101440 77
2002-03-12 07:10 51°14.446 2°54.869 2.7 223 8.2 101440 77
2002-03-12 07:12 51°14.599 2°54.662 4.3 217 8.2 101440 77
2002-03-12 07:12 51°14.75 2°54.459 4.2 214 8.2 101440 77
2002-03-12 07:14 51°14.906 2°54.253 3.3 201 8.1 101440 76
2002-03-12 07:15 51°15.066 2°54.055 3.3 193 8 101430 77
2002-03-12 07:16 51°15.237 2°53.843 3 203 8 101440 77
2002-03-12 07:17 51°15.421 2°53.642 3.3 198 8 101440 78
2002-03-12 07:18 51°15.61 2°53.449 2.3 205 8 101430 78
2002-03-12 07:19 51°15.796 2°53.25 1.9 210 8 101440 78
2002-03-12 07:20 51°15.984 2°53.056 2.5 217 8 101440 78
2002-03-12 07:21 51°16.181 2°52.896 3.6 194 8.1 101440 79
2002-03-12 07:22 51°16.385 2°52.766 3.9 204 8.2 101440 79
2002-03-12 07:23 51°16.591 2°52.651 4.1 203 8.2 101440 79
2002-03-12 07:24 51°16.794 2°52.549 4.3 222 8.2 101450 79
2002-03-12 07:25 51°16.998 2°52.461 4.4 210 8.2 101450 79
2002-03-12 07:26 51°17.204 2°52.38 5.1 226 8.2 101450 79
2002-03-12 07:27 51°17.411 2°52.307 5.9 220 8.3 101450 79
2002-03-12 07:28 51°17.617 2°52.235 6.2 213 8.3 101450 79
2002-03-12 07:29 51°17.825 2°52.2 6.8 202 8.4 101440 79
2002-03-12 07:30 51°18.029 2°52.244 7.2 195 8.4 101440 78
2002-03-12 07:31 51°18.227 2°52.332 7.6 202 8.4 101440 78
2002-03-12 07:32 51°18.338 2°52.596 8.3 210 8.4 101430 78
2002-03-12 07:32 51°18.456 2°52.856 9.2 211 8.5 101440 78
2002-03-12 07:34 51°18.568 2°53.136 10.2 211 8.5 101430 78
2002-03-12 07:35 51°18.651 2°53.437 9.8 210 8.5 101430 78
2002-03-12 07:36 51°18.741 2°53.731 9.6 207 8.5 101440 77
2002-03-12 07:37 51°18.831 2°54.026 9.6 211 8.5 101440 77
2002-03-12 07:38 51°18.92 2°54.32 10.1 212 8.6 101440 77
2002-03-12 07:39 51°19.011 2°54.614 9.8 218 8.6 101450 78
2002-03-12 07:39 51°19.1 2°54.902 9 217 8.6 101450 77
2002-03-12 07:40 51°19.19 2°55.194 8.7 216 8.6 101450 77
2002-03-12 07:42 51°19.281 2°55.492 9.2 224 8.6 101460 78
2002-03-12 07:43 51°19.372 2°55.783 9.5 224 8.6 101460 78
2002-03-12 07:43 51°19.461 2°56.069 9.3 222 8.6 101460 78
2002-03-12 07:45 51°19.554 2°56.365 9 218 8.6 101450 79
2002-03-12 07:46 51°19.642 2°56.659 8.9 214 8.5 101460 79
2002-03-12 07:47 51°19.73 2°56.954 9.4 213 8.5 101460 79
2002-03-12 07:48 51°19.819 2°57.249 9.3 215 8.4 101460 78
2002-03-12 07:49 51°19.909 2°57.543 9.6 215 8.4 101460 78
2002-03-12 07:50 51°20 2°57.836 9.4 213 8.4 101460 78
2002-03-12 07:51 51°20.09 2°58.13 9 211 8.3 101460 79
2002-03-12 07:52 51°20.18 2°58.425 8.8 214 8.4 101470 79
2002-03-12 07:52 51°20.269 2°58.713 8.7 217 8.3 101460 79
2002-03-12 07:54 51°20.361 2°59.01 9 218 8.3 101460 79
2002-03-12 07:55 51°20.453 2°59.305 8.6 213 8.3 101470 79
2002-03-12 07:56 51°20.539 2°59.605 8.7 213 8.3 101470 79
2002-03-12 07:57 51°20.626 2°59.903 8.3 220 8.3 101470 79
2002-03-12 07:58 51°20.711 3°0.207 8.4 215 8.4 101470 79
2002-03-12 07:59 51°20.795 3°0.511 8.9 220 8.3 101470 79
2002-03-12 08:00 51°20.878 3°0.815 8.5 217 8.3 101470 79
2002-03-12 08:01 51°20.959 3°1.12 8.4 220 8.3 101470 79
2002-03-12 08:02 51°21.041 3°1.425 8 219 8.3 101470 79
2002-03-12 08:03 51°21.124 3°1.732 8.5 215 8.3 101470 79
2002-03-12 08:04 51°21.205 3°2.037 8.2 215 8.4 101470 79
2002-03-12 08:05 51°21.287 3°2.343 8.3 215 8.4 101470 79
2002-03-12 08:06 51°21.369 3°2.648 8.3 214 8.5 101470 79
2002-03-12 08:06 51°21.449 3°2.946 7.7 211 8.5 101470 80
2002-03-12 08:08 51°21.534 3°3.257 8 214 8.5 101460 80
2002-03-12 08:09 51°21.615 3°3.551 8.4 213 8.5 101470 80
2002-03-12 08:10 51°21.699 3°3.851 7.7 214 8.4 101460 80
2002-03-12 08:11 51°21.783 3°4.15 8.3 214 8.4 101460 80
2002-03-12 08:12 51°21.867 3°4.445 7.8 215 8.3 101460 80
2002-03-12 08:13 51°21.93 3°4.754 7.6 215 8.3 101470 80
2002-03-12 08:14 51°21.982 3°5.069 8.7 217 8.3 101470 79
2002-03-12 08:15 51°22.037 3°5.385 7.9 214 8.3 101460 79
2002-03-12 08:15 51°22.089 3°5.701 7.7 215 8.3 101470 79
2002-03-12 08:17 51°22.146 3°6.026 8.2 215 8.3 101470 79
2002-03-12 08:18 51°22.201 3°6.346 8.1 214 8.3 101470 80
2002-03-12 08:19 51°22.258 3°6.666 7.8 213 8.3 101470 80
2002-03-12 08:20 51°22.314 3°6.99 7.6 212 8.3 101470 80
2002-03-12 08:21 51°22.37 3°7.317 7.8 214 8.4 101470 80
2002-03-12 08:22 51°22.423 3°7.645 7.5 213 8.4 101470 80
2002-03-12 08:22 51°22.476 3°7.969 7.8 211 8.4 101460 79
2002-03-12 08:24 51°22.531 3°8.305 7.7 213 8.4 101470 79
2002-03-12 08:25 51°22.586 3°8.635 8.4 212 8.5 101470 79
2002-03-12 08:26 51°22.633 3°8.946 6 213 8.6 101470 79
2002-03-12 08:27 51°22.674 3°9.194 5.3 213 8.6 101480 78
2002-03-12 08:28 51°22.689 3°9.36 2.9 195 8.6 101480 78
2002-03-12 08:28 51°22.719 3°9.444 1.8 180 8.7 101490 77
2002-03-12 08:30 51°22.726 3°9.47 1.4 139 8.6 101480 77
2002-03-12 08:31 51°22.726 3°9.471 1.3 135 8.6 101490 77
2002-03-12 08:32 51°22.727 3°9.473 1.5 141 8.7 101480 77
2002-03-12 08:33 51°22.729 3°9.473 1.6 128 8.7 101490 77
2002-03-12 08:34 51°22.73 3°9.475 1.4 137 8.7 101480 77
2002-03-12 08:35 51°22.731 3°9.477 1.3 133 8.7 101490 76
2002-03-12 08:35 51°22.733 3°9.48 1.3 121 8.7 101490 76
2002-03-12 08:37 51°22.734 3°9.483 2 116 8.8 101490 76
2002-03-12 08:38 51°22.736 3°9.484 1.4 115 8.8 101490 76
2002-03-12 08:39 51°22.737 3°9.488 1.7 114 8.9 101500 76
2002-03-12 08:40 51°22.739 3°9.491 1.3 105 8.9 101490 76
2002-03-12 08:40 51°22.74 3°9.495 1.4 111 9 101500 76
2002-03-12 08:42 51°22.74 3°9.497 1.6 111 9 101500 76
2002-03-12 08:43 51°22.74 3°9.495 0.8 110 9 101500 76
2002-03-12 08:44 51°22.738 3°9.492 1.7 105 9 101500 76
2002-03-12 08:45 51°22.736 3°9.488 1.8 119 9 101500 76
2002-03-12 08:46 51°22.734 3°9.483 1.9 109 9 101490 76
2002-03-12 08:47 51°22.731 3°9.476 2.4 100 9 101500 76
2002-03-12 08:48 51°22.729 3°9.469 2.3 101 9.1 101500 77
2002-03-12 08:49 51°22.725 3°9.464 2 101 9 101490 77
2002-03-12 08:50 51°22.722 3°9.459 2.7 99 9.1 101500 77
2002-03-12 08:51 51°22.72 3°9.452 2.3 102 9.1 101490 77
2002-03-12 08:52 51°22.717 3°9.446 2.4 96 9 101500 77
2002-03-12 08:53 51°22.714 3°9.441 2.3 99 9 101500 78
2002-03-12 08:54 51°22.713 3°9.438 2.3 105 9 101490 78
2002-03-12 08:55 51°22.712 3°9.438 2.2 120 9 101490 78
2002-03-12 08:56 51°22.709 3°9.443 2.3 135 9 101490 78
2002-03-12 08:57 51°22.705 3°9.449 2.6 143 9 101490 78
2002-03-12 08:58 51°22.699 3°9.456 2.5 161 9 101490 78
2002-03-12 08:59 51°22.691 3°9.464 3.2 171 9 101490 78
2002-03-12 09:00 51°22.682 3°9.472 3.1 174 8.9 101490 79
2002-03-12 09:01 51°22.674 3°9.476 2.8 173 8.9 101490 79
2002-03-12 09:02 51°22.667 3°9.479 2.8 172 8.8 101490 80
2002-03-12 09:03 51°22.657 3°9.487 3.1 172 8.8 101490 79
2002-03-12 09:04 51°22.649 3°9.497 3 165 8.8 101490 79
2002-03-12 09:05 51°22.639 3°9.506 2.9 171 8.8 101490 79
2002-03-12 09:06 51°22.631 3°9.516 2.4 182 8.8 101490 79
2002-03-12 09:07 51°22.621 3°9.524 2.3 182 8.8 101500 79
2002-03-12 09:08 51°22.612 3°9.531 2.5 188 8.8 101490 79
2002-03-12 09:09 51°22.604 3°9.536 2.5 193 8.9 101490 79
2002-03-12 09:10 51°22.596 3°9.54 2.5 197 8.9 101490 79
2002-03-12 09:11 51°22.588 3°9.543 2.4 202 8.9 101490 79
2002-03-12 09:12 51°22.608 3°9.51 1.3 136 8.9 101480 79
2002-03-12 09:13 51°22.642 3°9.455 1.8 160 8.9 101480 79
2002-03-12 09:14 51°22.666 3°9.408 2.2 166 9 101480 79
2002-03-12 09:14 51°22.668 3°9.393 2.5 169 9 101480 79
2002-03-12 09:16 51°22.667 3°9.386 2.6 165 9 101480 79
2002-03-12 09:17 51°22.661 3°9.393 2.6 157 9 101480 79
2002-03-12 09:18 51°22.655 3°9.405 2.4 148 9 101480 79
2002-03-12 09:19 51°22.652 3°9.426 1.9 129 9 101480 79
2002-03-12 09:20 51°22.655 3°9.448 1.6 110 9 101480 79
2002-03-12 09:20 51°22.661 3°9.471 1.4 107 9.1 101490 79
2002-03-12 09:21 51°22.668 3°9.492 1.4 109 9.1 101490 79
2002-03-12 09:22 51°22.675 3°9.511 1.3 105 9.1 101480 79
2002-03-12 09:24 51°22.751 3°9.495 4.2 241 9.2 101480 79
2002-03-12 09:25 51°22.893 3°9.257 6 245 9.2 101480 79
2002-03-12 09:26 51°23.009 3°8.952 6.8 250 9.2 101480 78
2002-03-12 09:27 51°23.108 3°8.621 6.4 251 9.2 101470 78
2002-03-12 09:28 51°23.202 3°8.281 7 253 9.3 101470 78
2002-03-12 09:29 51°23.302 3°7.944 6.5 254 9.3 101470 78
2002-03-12 09:30 51°23.414 3°7.618 6.1 256 9.2 101480 78
2002-03-12 09:31 51°23.572 3°7.359 4.7 242 9.2 101480 79
2002-03-12 09:32 51°23.787 3°7.248 5 232 9.1 101470 79
2002-03-12 09:33 51°23.982 3°7.14 3.6 229 9 101480 79
2002-03-12 09:34 51°24.099 3°7.077 1.2 221 9.1 101480 80
2002-03-12 09:35 51°24.157 3°7.03 0.5 55 9.1 101470 80
2002-03-12 09:36 51°24.174 3°7.023 1.2 71 9.1 101480 80
2002-03-12 09:37 51°24.188 3°7.018 1.4 76 9.1 101480 80
2002-03-12 09:38 51°24.148 3°7.038 4 60 9 101470 80
2002-03-12 09:39 51°24.096 3°7.075 3 56 8.9 101480 80
2002-03-12 09:40 51°24.096 3°7.079 1.7 43 8.9 101480 81
2002-03-12 09:41 51°24.102 3°7.08 2.2 34 8.9 101480 81
2002-03-12 09:42 51°24.11 3°7.082 1.1 40 8.9 101480 81
2002-03-12 09:43 51°24.118 3°7.083 1.4 45 8.9 101480 82
2002-03-12 09:44 51°24.126 3°7.086 0.9 20 9 101480 82
2002-03-12 09:45 51°24.134 3°7.088 2 11 9.1 101480 82
2002-03-12 09:46 51°24.142 3°7.091 1.7 33 9.2 101480 82
2002-03-12 09:47 51°24.148 3°7.092 1.8 26 9.2 101470 82
2002-03-12 09:48 51°24.155 3°7.09 1.8 10 9.2 101470 81
2002-03-12 09:49 51°24.161 3°7.083 1.7 2 9.2 101470 81
2002-03-12 09:50 51°24.166 3°7.068 1.4 6 9.1 101470 81
2002-03-12 09:51 51°24.172 3°7.047 1.3 358 9.1 101470 81
2002-03-12 09:52 51°24.177 3°7.022 1.4 359 9.1 101470 81
2002-03-12 09:53 51°24.18 3°7.002 1.5 359 9.1 101470 81
2002-03-12 09:54 51°24.183 3°6.987 1.6 11 9.1 101460 81
2002-03-12 09:55 51°24.188 3°6.977 1.5 20 9.1 101460 81
2002-03-12 09:56 51°24.193 3°6.97 1.4 25 9.1 101460 81
2002-03-12 09:57 51°24.199 3°6.965 1.1 18 9.1 101460 81
2002-03-12 09:58 51°24.204 3°6.963 1.7 30 9.2 101460 81
2002-03-12 09:59 51°24.21 3°6.963 1.6 31 9.3 101470 81
2002-03-12 10:00 51°24.215 3°6.965 1.7 22 9.3 101460 81
2002-03-12 10:01 51°24.222 3°6.968 1.5 23 9.5 101470 81
2002-03-12 10:02 51°24.228 3°6.974 1 20 9.6 101470 81
2002-03-12 10:03 51°24.234 3°6.981 1.8 26 9.7 101470 80
2002-03-12 10:03 51°24.24 3°6.989 1.6 36 9.7 101470 80
2002-03-12 10:05 51°24.245 3°6.997 2 33 9.7 101470 79
2002-03-12 10:06 51°24.249 3°7.006 2.5 43 9.7 101470 78
2002-03-12 10:07 51°24.253 3°7.014 2.1 33 9.6 101470 78
2002-03-12 10:07 51°24.257 3°7.024 1.7 21 9.7 101470 79
2002-03-12 10:09 51°24.261 3°7.034 1.6 26 9.6 101470 78
2002-03-12 10:10 51°24.265 3°7.044 1.8 17 9.6 101460 79
2002-03-12 10:11 51°24.269 3°7.055 1.5 24 9.5 101460 79
2002-03-12 10:12 51°24.273 3°7.067 1.9 25 9.4 101460 79
2002-03-12 10:13 51°24.274 3°7.128 2.6 36 9.4 101460 80
2002-03-12 10:13 51°24.278 3°7.066 2.7 246 9.5 101450 81
2002-03-12 10:15 51°24.284 3°6.759 5.4 248 9.4 101450 80
2002-03-12 10:16 51°24.299 3°6.444 4.5 245 9.3 101450 80
2002-03-12 10:17 51°24.324 3°6.127 5.1 239 9.3 101450 81
2002-03-12 10:18 51°24.393 3°5.807 5 236 9.2 101450 81
2002-03-12 10:19 51°24.473 3°5.5 5.8 232 9.2 101450 81
2002-03-12 10:20 51°24.553 3°5.184 5.7 230 9.1 101450 82
2002-03-12 10:21 51°24.623 3°4.857 5.9 232 9.1 101450 82
2002-03-12 10:21 51°24.683 3°4.54 5.8 234 9 101450 82
2002-03-12 10:23 51°24.734 3°4.2 5.4 235 9 101450 82
2002-03-12 10:24 51°24.786 3°3.862 5.8 234 9 101450 82
2002-03-12 10:25 51°24.827 3°3.529 5.9 231 9 101450 83
2002-03-12 10:26 51°24.775 3°3.211 6.4 241 9 101440 83
2002-03-12 10:27 51°24.645 3°2.929 6.4 245 8.9 101440 83
2002-03-12 10:28 51°24.538 3°2.619 6.6 249 8.9 101440 83
2002-03-12 10:29 51°24.419 3°2.334 6.7 244 8.9 101440 84
2002-03-12 10:30 51°24.292 3°2.053 6.3 244 9 101430 84
2002-03-12 10:31 51°24.164 3°1.774 6.3 239 9.1 101440 84
2002-03-12 10:32 51°24.035 3°1.502 6.9 242 9.1 101440 83
2002-03-12 10:33 51°23.905 3°1.23 7 243 9.1 101430 83
2002-03-12 10:34 51°23.766 3°0.975 7.6 247 9.1 101440 83
2002-03-12 10:35 51°23.621 3°0.73 6.9 245 9.1 101440 83
2002-03-12 10:35 51°23.479 3°0.488 7 246 9.1 101440 83
2002-03-12 10:37 51°23.333 3°0.277 5.4 251 9.2 101440 84
2002-03-12 10:38 51°23.234 3°0.141 3.5 263 9.2 101440 84
2002-03-12 10:39 51°23.222 3°0.039 0.8 269 9.2 101450 84
2002-03-12 10:39 51°23.241 2°59.984 0.9 13 9.3 101450 84
2002-03-12 10:41 51°23.253 2°59.978 0.5 6 9.3 101440 84
2002-03-12 10:42 51°23.262 2°59.971 0.6 353 9.4 101440 84
2002-03-12 10:43 51°23.268 2°59.966 0.6 348 9.5 101440 84
2002-03-12 10:44 51°23.271 2°59.961 0.4 342 9.5 101440 84
2002-03-12 10:45 51°23.274 2°59.956 0.9 358 9.5 101430 83
2002-03-12 10:45 51°23.278 2°59.947 1.1 4 9.5 101430 83
2002-03-12 10:47 51°23.285 2°59.937 0.8 15 9.5 101430 83
2002-03-12 10:48 51°23.29 2°59.929 0.8 6 9.5 101430 83
2002-03-12 10:49 51°23.294 2°59.924 1.2 3 9.6 101430 83
2002-03-12 10:50 51°23.294 2°59.924 1.2 351 9.6 101430 83
2002-03-12 10:51 51°23.292 2°59.929 0.5 340 9.6 101430 83
2002-03-12 10:52 51°23.289 2°59.936 1 350 9.6 101430 83
2002-03-12 10:53 51°23.284 2°59.943 0.8 348 9.6 101430 83
2002-03-12 10:54 51°23.28 2°59.949 1.6 4 9.6 101430 83
2002-03-12 10:55 51°23.277 2°59.952 1.7 23 9.6 101430 82
2002-03-12 10:56 51°23.276 2°59.954 1.9 32 9.5 101430 82
2002-03-12 10:57 51°23.275 2°59.955 0.8 47 9.5 101430 83
2002-03-12 10:58 51°23.278 2°59.95 2 51 9.6 101430 83
2002-03-12 10:59 51°23.281 2°59.945 1.9 68 9.5 101430 83
2002-03-12 11:00 51°23.286 2°59.94 1.9 70 9.4 101430 83
2002-03-12 11:01 51°23.293 2°59.934 1.7 79 9.3 101430 83
2002-03-12 11:02 51°23.302 2°59.928 2 94 9.3 101430 83
2002-03-12 11:03 51°23.315 2°59.92 1.8 95 9.3 101430 84
2002-03-12 11:04 51°23.328 2°59.913 1.9 86 9.2 101430 84
2002-03-12 11:05 51°23.34 2°59.909 1.7 81 9.2 101430 84
2002-03-12 11:06 51°23.351 2°59.906 1.9 84 9.2 101430 84
2002-03-12 11:06 51°23.363 2°59.909 2.2 86 9.1 101430 84
2002-03-12 11:08 51°23.381 2°59.906 2.3 138 9.1 101430 85
2002-03-12 11:09 51°23.473 2°59.925 6.1 233 9.1 101420 85
2002-03-12 11:10 51°23.463 3°0.106 4 288 9.1 101420 85
2002-03-12 11:11 51°23.385 3°0.071 1.3 256 9.1 101430 85
2002-03-12 11:12 51°23.297 3°0.045 1.8 302 9.1 101420 85
2002-03-12 11:13 51°23.252 3°0.023 1.3 95 9.2 101430 85
2002-03-12 11:14 51°23.258 3°0.027 2 96 9.2 101420 85
2002-03-12 11:15 51°23.272 3°0.033 2.2 104 9.2 101430 85
2002-03-12 11:16 51°23.286 3°0.044 2.4 91 9.2 101430 85
2002-03-12 11:17 51°23.3 3°0.058 2.1 89 9.2 101430 85
2002-03-12 11:18 51°23.314 3°0.076 2 86 9.1 101430 85
2002-03-12 11:19 51°23.328 3°0.095 2.1 83 9.1 101430 85
2002-03-12 11:20 51°23.34 3°0.114 2.1 82 9.1 101430 85
2002-03-12 11:21 51°23.349 3°0.124 1.8 88 9.1 101430 85
2002-03-12 11:21 51°23.352 3°0.126 1.9 94 9.1 101420 85
2002-03-12 11:23 51°23.356 3°0.133 2.4 90 9.1 101420 85
2002-03-12 11:23 51°23.361 3°0.143 2 103 9.1 101420 85
2002-03-12 11:25 51°23.422 3°0.054 7.4 225 9.1 101420 85
2002-03-12 11:26 51°23.567 3°0.224 9.1 251 9.1 101420 86
2002-03-12 11:27 51°23.692 3°0.559 10.5 249 9.1 101400 86
2002-03-12 11:28 51°23.815 3°0.918 9.9 250 9.1 101400 86
2002-03-12 11:28 51°23.933 3°1.276 10.8 248 9.1 101400 86
2002-03-12 11:30 51°24.055 3°1.647 10.2 244 9.2 101400 86
2002-03-12 11:31 51°24.179 3°2.015 11.4 246 9.1 101400 86
2002-03-12 11:32 51°24.312 3°2.359 11.2 244 9.1 101400 86
2002-03-12 11:33 51°24.449 3°2.716 10 240 9.1 101410 85
2002-03-12 11:34 51°24.59 3°3.059 10.5 238 9.1 101400 85
2002-03-12 11:35 51°24.749 3°3.368 10.3 238 9.1 101410 85
2002-03-12 11:36 51°24.93 3°3.65 11.1 241 9.1 101400 85
2002-03-12 11:37 51°25.117 3°3.935 10.9 241 9.1 101400 85
2002-03-12 11:38 51°25.296 3°4.199 10.8 237 9 101400 85
2002-03-12 11:39 51°25.48 3°4.459 10.5 235 9 101400 85
2002-03-12 11:40 51°25.664 3°4.724 11.1 237 9 101400 85
2002-03-12 11:41 51°25.854 3°4.975 11.4 239 8.9 101400 85
2002-03-12 11:42 51°26.047 3°5.215 10.8 239 8.9 101400 85
2002-03-12 11:43 51°26.24 3°5.463 10.7 239 8.9 101400 85
2002-03-12 11:44 51°26.426 3°5.705 10.6 236 8.9 101400 85
2002-03-12 11:45 51°26.619 3°5.944 10 231 8.9 101390 85
2002-03-12 11:46 51°26.817 3°6.179 10.5 234 8.9 101400 85
2002-03-12 11:47 51°27.027 3°6.355 10.3 238 8.9 101400 85
2002-03-12 11:48 51°27.243 3°6.538 10.6 232 8.9 101400 85
2002-03-12 11:49 51°27.456 3°6.703 10.3 230 8.9 101390 85
2002-03-12 11:50 51°27.672 3°6.872 9.8 233 8.9 101390 85
2002-03-12 11:51 51°27.888 3°7.041 9.6 234 8.9 101390 85
2002-03-12 11:52 51°28.101 3°7.221 10 233 9 101400 85
2002-03-12 11:53 51°28.302 3°7.441 8.9 229 9 101390 85
2002-03-12 11:54 51°28.42 3°7.608 5.8 235 9 101400 85
2002-03-12 11:55 51°28.493 3°7.728 5 232 9 101400 85
2002-03-12 11:56 51°28.557 3°7.824 4.6 227 9 101400 85
2002-03-12 11:57 51°28.62 3°7.904 4.3 225 9 101400 85
2002-03-12 11:58 51°28.68 3°7.971 4.4 225 9 101400 85
2002-03-12 11:59 51°28.74 3°8.04 4.3 229 9 101400 85
2002-03-12 12:00 51°28.81 3°8.111 6.4 220 9 101400 85
2002-03-12 12:01 51°28.978 3°8.099 6.8 207 9 101390 85
2002-03-12 12:01 51°29.027 3°7.987 2.3 98 9 101400 85
2002-03-12 12:03 51°29.023 3°7.972 1.1 49 9 101400 85
2002-03-12 12:04 51°28.996 3°7.963 1.2 7 9 101400 85
2002-03-12 12:05 51°28.963 3°7.948 1.2 22 9 101400 86
2002-03-12 12:06 51°28.958 3°7.946 2.1 69 9.1 101400 86
2002-03-12 12:07 51°28.963 3°7.948 2.3 94 9.1 101400 85
2002-03-12 12:08 51°28.976 3°7.947 2.5 127 9.1 101390 85
2002-03-12 12:09 51°28.995 3°7.949 2.2 142 9 101390 85
2002-03-12 12:09 51°29.015 3°7.954 2.4 124 9.1 101390 85
2002-03-12 12:11 51°29.031 3°7.957 1.9 104 9 101390 85
2002-03-12 12:12 51°29.041 3°7.956 1.6 73 9 101390 85
2002-03-12 12:13 51°29.042 3°7.958 0.3 335 9 101390 85
2002-03-12 12:14 51°29.037 3°7.97 1.8 6 9.1 101380 85
2002-03-12 12:15 51°29.029 3°7.993 1.7 5 9 101380 85
2002-03-12 12:16 51°29.02 3°8.009 1.7 30 9 101370 85
2002-03-12 12:17 51°29.014 3°8.01 1.3 41 9.1 101370 85
2002-03-12 12:18 51°29.007 3°8.003 1 56 9.2 101380 85
2002-03-12 12:19 51°28.995 3°7.997 1.2 35 9.2 101370 85
2002-03-12 12:20 51°28.986 3°7.984 1.7 73 9.2 101370 85
2002-03-12 12:21 51°28.986 3°7.961 1.7 84 9.2 101370 85
2002-03-12 12:22 51°28.989 3°7.933 1.7 91 9.1 101370 84
2002-03-12 12:23 51°28.992 3°7.908 1.9 73 9.1 101370 84
2002-03-12 12:24 51°28.991 3°7.9 1.8 26 9.1 101370 84
2002-03-12 12:25 51°28.986 3°7.907 2.3 19 9.1 101370 85
2002-03-12 12:26 51°28.98 3°7.922 2.5 15 9.1 101370 85
2002-03-12 12:27 51°28.975 3°7.934 2.1 317 9 101370 85
2002-03-12 12:28 51°28.977 3°7.936 2.2 77 9.1 101360 85
2002-03-12 12:29 51°28.984 3°7.932 2 87 9.1 101370 85
2002-03-12 12:30 51°28.992 3°7.927 1.9 83 9.1 101360 84
2002-03-12 12:30 51°29.001 3°7.927 2.5 80 9 101360 84
2002-03-12 12:32 51°29.009 3°7.929 2.4 75 9 101350 85
2002-03-12 12:33 51°29.019 3°7.932 2.5 84 8.9 101350 85
2002-03-12 12:34 51°29.029 3°7.934 2.3 78 8.9 101350 85
2002-03-12 12:35 51°29.035 3°7.935 2.5 64 8.9 101350 85
2002-03-12 12:36 51°29.042 3°7.939 2.4 69 8.9 101350 85
2002-03-12 12:36 51°29.049 3°7.943 2.7 72 8.9 101340 85
2002-03-12 12:38 51°29.058 3°7.948 2.8 74 8.9 101350 85
2002-03-12 12:39 51°29.064 3°7.95 2.5 39 8.9 101340 85
2002-03-12 12:40 51°29.061 3°7.954 2.7 24 8.9 101340 85
2002-03-12 12:41 51°29.058 3°7.963 2.7 20 8.9 101340 85
2002-03-12 12:42 51°29.053 3°7.974 2.4 12 8.9 101340 85
2002-03-12 12:42 51°29.049 3°7.989 2.5 2 8.9 101340 85
2002-03-12 12:44 51°29.042 3°8.007 1.9 349 8.9 101330 85
2002-03-12 12:45 51°29.035 3°8.028 0.8 343 8.9 101330 85
2002-03-12 12:46 51°29.026 3°8.051 0.2 337 8.9 101330 85
2002-03-12 12:47 51°28.982 3°7.982 3 205 8.9 101320 86
2002-03-12 12:47 51°28.938 3°7.698 4.5 225 8.9 101320 85
2002-03-12 12:49 51°28.861 3°7.389 4.5 225 8.9 101320 85
2002-03-12 12:50 51°28.837 3°7.053 4.6 226 8.9 101320 85
2002-03-12 12:51 51°28.814 3°6.722 4.7 222 9 101320 85
2002-03-12 12:52 51°28.793 3°6.397 4.8 225 9 101320 85
2002-03-12 12:52 51°28.771 3°6.072 4.7 225 9 101320 85
2002-03-12 12:54 51°28.748 3°5.729 5.1 226 9 101320 85
2002-03-12 12:55 51°28.73 3°5.397 5.4 226 9 101320 85
2002-03-12 12:56 51°28.713 3°5.066 5 223 9 101320 85
2002-03-12 12:57 51°28.701 3°4.736 5.6 221 9 101320 86
2002-03-12 12:58 51°28.693 3°4.411 5.7 222 9 101320 86
2002-03-12 12:59 51°28.687 3°4.077 6 224 9 101320 86
2002-03-12 13:00 51°28.682 3°3.804 3.3 218 9.1 101320 86
2002-03-12 13:01 51°28.666 3°3.702 0.2 165 9.1 101330 86
2002-03-12 13:02 51°28.676 3°3.676 0.7 107 9.1 101330 86
2002-03-12 13:03 51°28.691 3°3.663 1 104 9.2 101330 86
2002-03-12 13:04 51°28.709 3°3.659 1.3 93 9.1 101330 86
2002-03-12 13:04 51°28.726 3°3.659 1.4 78 9.1 101330 86
2002-03-12 13:06 51°28.738 3°3.659 1.1 26 9.1 101320 85
2002-03-12 13:07 51°28.743 3°3.66 1.9 26 9.1 101320 86
2002-03-12 13:08 51°28.742 3°3.669 1.2 350 9.1 101320 86
2002-03-12 13:09 51°28.735 3°3.688 0.1 331 9 101320 86
2002-03-12 13:10 51°28.727 3°3.707 0.1 332 9 101320 86
2002-03-12 13:11 51°28.718 3°3.729 1.8 309 9 101320 86
2002-03-12 13:12 51°28.707 3°3.758 1.7 310 9 101320 86
2002-03-12 13:13 51°28.7 3°3.775 0.4 337 9 101320 86
2002-03-12 13:14 51°28.694 3°3.782 0.3 333 9 101320 86
2002-03-12 13:15 51°28.687 3°3.785 0.1 326 9 101320 86
2002-03-12 13:16 51°28.681 3°3.792 0.3 334 9 101320 86
2002-03-12 13:17 51°28.68 3°3.807 0.1 338 9 101320 86
2002-03-12 13:18 51°28.681 3°3.828 0.3 329 9 101320 86
2002-03-12 13:19 51°28.684 3°3.852 0.2 336 8.9 101320 86
2002-03-12 13:20 51°28.687 3°3.873 1.2 343 8.9 101330 86
2002-03-12 13:21 51°28.691 3°3.891 1.8 3 8.9 101330 86
2002-03-12 13:22 51°28.696 3°3.903 1.7 19 8.9 101330 86
2002-03-12 13:23 51°28.704 3°3.91 1.7 28 8.9 101330 86
2002-03-12 13:24 51°28.714 3°3.918 1.6 30 8.9 101330 86
2002-03-12 13:25 51°28.725 3°3.927 1.9 33 8.9 101330 86
2002-03-12 13:26 51°28.735 3°3.933 1.5 27 8.9 101330 87
2002-03-12 13:27 51°28.743 3°3.933 1.5 23 8.9 101340 87
2002-03-12 13:28 51°28.749 3°3.929 1.5 27 8.9 101330 87
2002-03-12 13:29 51°28.753 3°3.919 1.4 19 8.9 101330 87
2002-03-12 13:30 51°28.755 3°3.915 1.6 13 8.9 101330 87
2002-03-12 13:31 51°28.76 3°3.921 1.7 12 8.9 101330 87
2002-03-12 13:32 51°28.764 3°3.93 1.4 10 9 101330 87
2002-03-12 13:33 51°28.767 3°3.94 1.6 8 9 101330 87
2002-03-12 13:34 51°28.771 3°3.949 1.6 18 9 101330 87
2002-03-12 13:35 51°28.777 3°3.956 1.7 32 9 101330 87
2002-03-12 13:36 51°28.784 3°3.961 1.6 38 9 101330 87
2002-03-12 13:37 51°28.794 3°3.964 1.1 134 9 101330 87
2002-03-12 13:38 51°28.806 3°3.965 0.7 317 9.1 101330 87
2002-03-12 13:38 51°28.819 3°3.964 0.8 33 9.2 101330 87
2002-03-12 13:40 51°28.834 3°3.963 1 32 9.3 101330 87
2002-03-12 13:41 51°28.848 3°3.964 1 43 9.3 101330 87
2002-03-12 13:42 51°28.861 3°3.964 0.7 15 9.4 101330 87
2002-03-12 13:43 51°28.872 3°3.965 0.6 42 9.5 101330 87
2002-03-12 13:44 51°28.881 3°3.968 1.2 58 9.5 101330 87
2002-03-12 13:45 51°28.888 3°3.972 1.3 43 9.5 101320 87
2002-03-12 13:46 51°28.895 3°3.975 0.9 360 9.6 101320 87
2002-03-12 13:47 51°28.842 3°3.887 3.2 242 9.6 101330 87
2002-03-12 13:48 51°28.715 3°3.675 4.5 234 9.5 101330 86
2002-03-12 13:49 51°28.578 3°3.448 4.1 233 9.4 101320 85
2002-03-12 13:50 51°28.438 3°3.216 3.9 237 9.4 101320 85
2002-03-12 13:51 51°28.304 3°2.989 3.7 232 9.4 101320 86
2002-03-12 13:52 51°28.167 3°2.748 3.7 231 9.4 101320 86
2002-03-12 13:53 51°28.033 3°2.514 3.8 235 9.3 101320 86
2002-03-12 13:54 51°27.898 3°2.278 4.1 235 9.3 101310 86
2002-03-12 13:55 51°27.763 3°2.041 3.9 234 9.4 101310 86
2002-03-12 13:56 51°27.63 3°1.803 3.5 231 9.4 101310 86
2002-03-12 13:57 51°27.495 3°1.568 3.6 233 9.4 101310 86
2002-03-12 13:58 51°27.36 3°1.337 3 235 9.4 101310 86
2002-03-12 13:59 51°27.228 3°1.106 3.1 235 9.4 101300 86
2002-03-12 14:00 51°27.094 3°0.876 3.1 238 9.4 101300 86
2002-03-12 14:01 51°26.961 3°0.642 3.2 236 9.4 101310 86
2002-03-12 14:02 51°26.826 3°0.412 3.2 238 9.5 101300 86
2002-03-12 14:03 51°26.693 3°0.18 3.1 237 9.4 101300 86
2002-03-12 14:04 51°26.559 2°59.946 3.2 233 9.5 101300 85
2002-03-12 14:05 51°26.428 2°59.715 3.3 240 9.4 101300 85
2002-03-12 14:06 51°26.291 2°59.478 3.6 234 9.4 101300 85
2002-03-12 14:07 51°26.157 2°59.243 3.2 237 9.4 101300 85
2002-03-12 14:08 51°26.021 2°59.007 3.3 234 9.4 101300 85
2002-03-12 14:09 51°25.887 2°58.771 4 239 9.4 101300 85
2002-03-12 14:10 51°25.746 2°58.525 3.8 233 9.5 101300 85
2002-03-12 14:11 51°25.607 2°58.28 3.7 234 9.5 101300 85
2002-03-12 14:12 51°25.466 2°58.031 3.5 232 9.5 101300 85
2002-03-12 14:13 51°25.323 2°57.781 3.3 232 9.5 101300 85
2002-03-12 14:14 51°25.179 2°57.531 3.7 230 9.5 101300 85
2002-03-12 14:15 51°25.032 2°57.287 3.5 230 9.4 101300 85
2002-03-12 14:16 51°24.892 2°57.034 3.2 231 9.4 101300 85
2002-03-12 14:17 51°24.757 2°56.774 3.1 234 9.4 101300 85
2002-03-12 14:18 51°24.62 2°56.514 4 236 9.4 101310 85
2002-03-12 14:19 51°24.484 2°56.255 4.2 233 9.4 101310 85
2002-03-12 14:20 51°24.347 2°55.996 4 235 9.4 101310 85
2002-03-12 14:21 51°24.211 2°55.735 4.1 234 9.4 101310 86
2002-03-12 14:22 51°24.076 2°55.475 4 239 9.3 101310 85
2002-03-12 14:23 51°23.941 2°55.215 4.2 236 9.4 101310 86
2002-03-12 14:24 51°23.805 2°54.953 4.1 236 9.3 101310 86
2002-03-12 14:25 51°23.672 2°54.696 3.8 232 9.3 101300 86
2002-03-12 14:26 51°23.534 2°54.435 3.8 236 9.3 101310 86
2002-03-12 14:27 51°23.401 2°54.176 3.9 237 9.3 101310 86
2002-03-12 14:28 51°23.264 2°53.921 3.7 244 9.3 101310 86
2002-03-12 14:29 51°23.065 2°53.865 6.1 263 9.2 101300 86
2002-03-12 14:30 51°22.852 2°53.87 5.6 266 9.2 101300 86
2002-03-12 14:31 51°22.638 2°53.872 5.6 265 9.2 101300 86
2002-03-12 14:32 51°22.424 2°53.869 5.4 256 9.1 101300 86
2002-03-12 14:33 51°22.207 2°53.863 5.3 261 9.1 101300 86
2002-03-12 14:34 51°21.989 2°53.856 5.8 265 9.1 101300 86
2002-03-12 14:35 51°21.776 2°53.792 4.8 251 9.1 101300 86
2002-03-12 14:36 51°21.567 2°53.696 4.4 254 9.1 101310 87
2002-03-12 14:37 51°21.372 2°53.544 4.4 245 9.1 101310 87
2002-03-12 14:38 51°21.19 2°53.355 3.9 235 9.1 101310 87
2002-03-12 14:39 51°21.078 2°53.061 4.1 211 9.1 101310 87
2002-03-12 14:40 51°21.002 2°52.731 4.3 217 9.1 101310 87
2002-03-12 14:41 51°20.913 2°52.407 4.3 216 9 101310 87
2002-03-12 14:42 51°20.823 2°52.082 3.9 212 9 101320 87
2002-03-12 14:43 51°20.737 2°51.755 4.2 209 9 101310 87
2002-03-12 14:44 51°20.661 2°51.421 4.6 211 9 101310 87
2002-03-12 14:45 51°20.583 2°51.088 4.7 211 9 101310 87
2002-03-12 14:46 51°20.505 2°50.755 4.5 208 9 101310 87
2002-03-12 14:47 51°20.428 2°50.423 4.4 204 9 101310 87
2002-03-12 14:48 51°20.351 2°50.09 4.2 201 9 101310 87
2002-03-12 14:49 51°20.274 2°49.758 4.1 202 8.9 101310 87
2002-03-12 14:50 51°20.199 2°49.428 5 204 8.9 101310 87
2002-03-12 14:51 51°20.131 2°49.093 5.6 205 8.9 101310 87
2002-03-12 14:52 51°20.063 2°48.759 5.1 204 8.9 101310 88
2002-03-12 14:53 51°19.994 2°48.426 4.6 205 8.9 101310 88
2002-03-12 14:54 51°19.945 2°48.084 4.9 200 8.9 101310 88
2002-03-12 14:55 51°19.921 2°47.81 2.9 178 8.9 101320 88
2002-03-12 14:56 51°19.924 2°47.71 3.1 73 8.9 101320 88
2002-03-12 14:57 51°19.929 2°47.707 2.1 131 8.9 101320 88
2002-03-12 14:58 51°19.929 2°47.706 3 22 9 101320 89
2002-03-12 14:59 51°19.928 2°47.708 3.5 23 9 101320 88
2002-03-12 15:00 51°19.926 2°47.71 3.1 24 8.9 101320 88
2002-03-12 15:01 51°19.925 2°47.71 3.5 38 8.9 101320 88
2002-03-12 15:02 51°19.922 2°47.709 3.1 43 8.9 101330 88
2002-03-12 15:03 51°19.919 2°47.706 2.9 47 9.1 101320 89
2002-03-12 15:04 51°19.916 2°47.701 2.3 46 9.3 101330 89
2002-03-12 15:05 51°19.913 2°47.696 3.6 50 9.5 101330 89
2002-03-12 15:06 51°19.911 2°47.688 3.2 67 9.4 101330 87
2002-03-12 15:07 51°19.909 2°47.678 3.1 79 9.3 101330 87
2002-03-12 15:08 51°19.907 2°47.668 2.9 88 9.2 101330 87
2002-03-12 15:09 51°19.907 2°47.656 3.5 100 9.1 101330 87
2002-03-12 15:10 51°19.908 2°47.644 3.8 109 9 101330 87
2002-03-12 15:11 51°19.91 2°47.632 3.9 103 9 101330 87
2002-03-12 15:12 51°19.914 2°47.621 1.9 107 9 101320 87
2002-03-12 15:13 51°19.918 2°47.61 4.2 120 8.9 101330 87
2002-03-12 15:14 51°19.922 2°47.6 4 129 9 101330 87
2002-03-12 15:15 51°19.926 2°47.586 4.1 110 9 101330 88
2002-03-12 15:16 51°19.927 2°47.569 4.1 100 8.9 101330 88
2002-03-12 15:17 51°19.926 2°47.551 4.3 94 8.9 101340 88
2002-03-12 15:18 51°19.92 2°47.534 4 74 8.9 101330 88
2002-03-12 15:19 51°19.912 2°47.52 3.8 43 8.9 101330 88
2002-03-12 15:20 51°19.9 2°47.515 4.2 25 9 101330 89
2002-03-12 15:21 51°19.888 2°47.518 4.1 359 8.9 101330 88
2002-03-12 15:22 51°19.878 2°47.523 4.3 351 8.9 101330 88
2002-03-12 15:23 51°19.869 2°47.529 4.2 351 8.9 101330 88
2002-03-12 15:24 51°19.861 2°47.536 1.6 345 8.8 101330 88
2002-03-12 15:25 51°19.854 2°47.544 0.5 336 8.8 101330 88
2002-03-12 15:26 51°19.849 2°47.553 1.3 330 8.8 101330 88
2002-03-12 15:27 51°19.843 2°47.561 0.6 329 8.8 101330 88
2002-03-12 15:28 51°19.837 2°47.57 0.4 324 8.8 101330 88
2002-03-12 15:29 51°19.832 2°47.58 1.1 334 8.8 101330 88
2002-03-12 15:30 51°19.828 2°47.589 2.3 308 8.8 101340 88
2002-03-12 15:31 51°19.823 2°47.599 2.4 318 8.8 101330 88
2002-03-12 15:32 51°19.819 2°47.608 3.6 301 8.7 101330 88
2002-03-12 15:33 51°19.815 2°47.616 3.5 308 8.8 101330 88
2002-03-12 15:34 51°19.812 2°47.625 4.2 303 8.7 101330 88
2002-03-12 15:35 51°19.809 2°47.634 5.6 297 8.8 101330 88
2002-03-12 15:36 51°19.805 2°47.642 4 303 8.8 101330 88
2002-03-12 15:37 51°19.801 2°47.65 3.3 307 8.7 101340 88
2002-03-12 15:38 51°19.794 2°47.667 5.7 300 8.8 101340 88
2002-03-12 15:39 51°19.687 2°47.674 0.1 134 8.8 101340 88
2002-03-12 15:40 51°19.589 2°47.397 3.6 198 8.8 101340 88
2002-03-12 15:41 51°19.497 2°47.063 4 197 8.8 101340 87
2002-03-12 15:42 51°19.424 2°46.715 3.8 190 8.8 101340 87
2002-03-12 15:43 51°19.349 2°46.373 4.4 186 8.8 101340 87
2002-03-12 15:44 51°19.289 2°46.013 4.2 189 8.8 101330 87
2002-03-12 15:45 51°19.218 2°45.662 3.9 180 8.8 101330 87
2002-03-12 15:46 51°19.152 2°45.307 3.5 188 8.8 101330 88
2002-03-12 15:47 51°19.083 2°44.953 3.7 186 8.8 101330 88
2002-03-12 15:48 51°19.003 2°44.604 4.1 192 8.8 101340 87
2002-03-12 15:49 51°18.927 2°44.248 4.6 193 8.8 101330 88
2002-03-12 15:50 51°18.894 2°43.917 4 180 8.8 101330 88
2002-03-12 15:51 51°18.914 2°43.722 5.2 168 8.8 101330 88
2002-03-12 15:52 51°18.917 2°43.706 4.8 175 8.8 101330 88
2002-03-12 15:53 51°18.916 2°43.695 5.4 161 8.8 101330 88
2002-03-12 15:54 51°18.915 2°43.683 3.3 147 8.8 101320 87
2002-03-12 15:55 51°18.915 2°43.67 4.2 145 8.8 101320 87
2002-03-12 15:56 51°18.916 2°43.655 4.6 136 8.8 101320 87
2002-03-12 15:57 51°18.918 2°43.639 5.1 138 8.8 101320 87
2002-03-12 15:58 51°18.919 2°43.622 4.6 137 8.8 101320 87
2002-03-12 15:59 51°18.922 2°43.605 4.9 147 8.8 101320 87
2002-03-12 16:00 51°18.928 2°43.583 4.8 153 8.8 101320 87
2002-03-12 16:01 51°18.941 2°43.56 5.4 170 8.8 101320 87
2002-03-12 16:02 51°18.92 2°43.555 4 142 8.8 101320 87
2002-03-12 16:03 51°18.854 2°43.599 5.6 113 8.8 101320 87
2002-03-12 16:04 51°18.808 2°43.685 6.5 96 8.8 101320 87
2002-03-12 16:05 51°18.794 2°43.793 7.7 74 8.8 101320 87
2002-03-12 16:06 51°18.819 2°43.888 7.1 47 8.8 101320 87
2002-03-12 16:07 51°18.874 2°43.949 7.6 28 9.2 101320 88
2002-03-12 16:08 51°18.902 2°43.956 2.2 326 9 101320 86
2002-03-12 16:09 51°18.895 2°43.947 0.5 354 9 101320 86
2002-03-12 16:10 51°18.886 2°43.936 1.4 322 8.9 101320 86
2002-03-12 16:11 51°18.876 2°43.924 1.1 342 8.9 101330 86
2002-03-12 16:12 51°18.865 2°43.911 1.3 325 8.8 101320 86
2002-03-12 16:13 51°18.854 2°43.899 1.1 340 8.8 101320 86
2002-03-12 16:14 51°18.842 2°43.886 1 316 8.8 101320 87
2002-03-12 16:15 51°18.83 2°43.874 0.7 333 8.8 101320 87
2002-03-12 16:16 51°18.842 2°43.844 5.8 358 8.8 101320 87
2002-03-12 16:17 51°18.886 2°43.805 3.6 360 8.8 101320 87
2002-03-12 16:18 51°18.884 2°43.782 3.2 353 8.8 101320 87
2002-03-12 16:19 51°18.876 2°43.762 3 349 8.8 101320 87
2002-03-12 16:20 51°18.863 2°43.744 2.8 357 8.8 101320 87
2002-03-12 16:21 51°18.849 2°43.728 2.9 350 8.8 101320 87
2002-03-12 16:22 51°18.836 2°43.713 2.8 349 8.8 101320 87
2002-03-12 16:23 51°18.822 2°43.699 1 332 8.8 101320 87
2002-03-12 16:24 51°18.809 2°43.685 0.8 327 8.8 101320 87
2002-03-12 16:25 51°18.796 2°43.672 0.6 330 8.8 101330 87
2002-03-12 16:26 51°18.784 2°43.659 0.7 334 8.8 101330 87
2002-03-12 16:27 51°18.772 2°43.646 1.1 320 8.8 101330 87
2002-03-12 16:28 51°18.759 2°43.633 1 308 8.8 101330 87
2002-03-12 16:29 51°18.748 2°43.62 1.4 334 8.8 101330 87
2002-03-12 16:30 51°18.736 2°43.608 1.2 318 8.8 101330 87
2002-03-12 16:31 51°18.724 2°43.594 1.6 322 8.8 101330 87
2002-03-12 16:32 51°18.711 2°43.581 1.3 327 8.8 101330 87
2002-03-12 16:33 51°18.699 2°43.568 1.3 319 8.8 101330 87
2002-03-12 16:34 51°18.686 2°43.555 3.4 315 8.8 101330 86
2002-03-12 16:35 51°18.579 2°43.653 8.2 278 8.8 101330 87
2002-03-12 16:36 51°18.398 2°43.832 8.5 277 8.8 101320 86
2002-03-12 16:37 51°18.195 2°43.94 7.1 281 8.8 101320 86
2002-03-12 16:38 51°17.981 2°44.015 7.9 285 8.8 101330 86
2002-03-12 16:39 51°17.759 2°44.08 7.4 276 8.8 101320 86
2002-03-12 16:40 51°17.572 2°44.161 7 279 8.8 101330 86
2002-03-12 16:41 51°17.53 2°44.25 7.8 265 8.8 101330 86
2002-03-12 16:42 51°17.53 2°44.318 7 256 8.8 101330 86
2002-03-12 16:43 51°17.53 2°44.351 6.6 259 8.8 101330 86
2002-03-12 16:44 51°17.525 2°44.357 6.1 263 8.8 101330 86
2002-03-12 16:45 51°17.518 2°44.358 6.3 270 8.8 101330 86
2002-03-12 16:46 51°17.509 2°44.358 6.3 274 8.8 101330 86
2002-03-12 16:47 51°17.498 2°44.357 6.2 277 8.8 101330 86
2002-03-12 16:48 51°17.487 2°44.356 6.2 277 8.8 101320 86
2002-03-12 16:49 51°17.476 2°44.354 5.4 279 8.8 101330 86
2002-03-12 16:50 51°17.464 2°44.352 5.4 278 8.8 101330 86
2002-03-12 16:51 51°17.453 2°44.35 6.1 280 8.8 101330 86
2002-03-12 16:52 51°17.442 2°44.347 5.8 282 8.8 101330 86
2002-03-12 16:53 51°17.43 2°44.345 5.4 281 8.8 101320 86
2002-03-12 16:54 51°17.417 2°44.342 5.9 284 8.8 101330 86
2002-03-12 16:55 51°17.404 2°44.34 5.6 285 8.8 101330 87
2002-03-12 16:56 51°17.389 2°44.337 5.2 280 8.8 101330 87
2002-03-12 16:57 51°17.375 2°44.334 5.3 282 8.8 101330 87
2002-03-12 16:58 51°17.361 2°44.332 5.6 283 8.8 101330 87
2002-03-12 16:59 51°17.345 2°44.328 5.7 287 8.8 101330 87
2002-03-12 17:00 51°17.329 2°44.325 5.8 283 8.8 101330 87
2002-03-12 17:01 51°17.328 2°44.275 1.1 328 8.8 101330 87
2002-03-12 17:02 51°17.375 2°44.167 4.6 4 8.8 101330 87
2002-03-12 17:03 51°17.453 2°44.142 7.5 35 8.8 101330 87
2002-03-12 17:04 51°17.502 2°44.22 8 58 9.1 101340 89
2002-03-12 17:05 51°17.517 2°44.336 7.7 61 9.1 101340 87
2002-03-12 17:06 51°17.518 2°44.355 5 84 9 101340 86
2002-03-12 17:07 51°17.511 2°44.318 4.8 104 8.9 101340 86
2002-03-12 17:08 51°17.505 2°44.28 4.2 103 8.9 101330 86
2002-03-12 17:09 51°17.498 2°44.241 5 112 8.9 101330 86
2002-03-12 17:10 51°17.492 2°44.202 3.9 107 8.8 101340 86
2002-03-12 17:11 51°17.486 2°44.16 4.1 114 8.9 101340 86
2002-03-12 17:12 51°17.482 2°44.118 4.6 122 8.9 101340 86
2002-03-12 17:13 51°17.478 2°44.076 4.2 126 8.8 101340 86
2002-03-12 17:14 51°17.476 2°44.035 4.3 130 8.8 101340 87
2002-03-12 17:15 51°17.473 2°43.994 4.8 135 8.8 101340 87
2002-03-12 17:16 51°17.471 2°43.953 3.7 135 8.8 101340 87
2002-03-12 17:17 51°17.469 2°43.911 3.7 137 8.8 101340 87
2002-03-12 17:18 51°17.479 2°43.802 2.8 94 8.8 101340 87
2002-03-12 17:19 51°17.387 2°43.755 6.9 275 8.8 101340 87
2002-03-12 17:20 51°17.24 2°43.952 10.3 260 8.8 101340 87
2002-03-12 17:21 51°17.111 2°44.225 10.9 264 8.8 101340 87
2002-03-12 17:22 51°16.973 2°44.493 10.6 262 8.8 101340 87
2002-03-12 17:23 51°16.829 2°44.753 10.4 261 8.9 101350 87
2002-03-12 17:24 51°16.66 2°44.973 9.8 262 8.9 101350 87
2002-03-12 17:25 51°16.521 2°45.234 10.8 260 8.8 101340 87
2002-03-12 17:26 51°16.415 2°45.529 11.8 256 8.9 101340 87
2002-03-12 17:27 51°16.334 2°45.842 11.3 256 8.9 101340 87
2002-03-12 17:28 51°16.253 2°46.155 10.9 252 8.9 101340 87
2002-03-12 17:29 51°16.186 2°46.478 12.2 254 8.9 101340 87
2002-03-12 17:30 51°16.103 2°46.796 12 254 8.9 101340 87
2002-03-12 17:31 51°15.987 2°47.078 11.4 258 8.9 101350 87
2002-03-12 17:32 51°15.885 2°47.366 11.7 257 8.9 101350 87
2002-03-12 17:33 51°15.79 2°47.659 11.7 255 8.8 101350 87
2002-03-12 17:34 51°15.69 2°47.949 10.9 256 8.8 101350 87
2002-03-12 17:35 51°15.606 2°48.251 10.8 257 8.8 101350 87
2002-03-12 17:36 51°15.511 2°48.545 11.4 257 8.8 101350 87
2002-03-12 17:37 51°15.394 2°48.828 10.9 256 8.8 101350 87
2002-03-12 17:38 51°15.313 2°49.137 11.3 253 8.8 101350 87
2002-03-12 17:39 51°15.259 2°49.458 12.8 247 8.8 101350 87
2002-03-12 17:40 51°15.208 2°49.779 11.5 253 8.8 101360 87
2002-03-12 17:41 51°15.154 2°50.098 12 250 8.8 101360 87
2002-03-12 17:42 51°15.109 2°50.42 11.7 248 8.8 101350 87
2002-03-12 17:43 51°15.061 2°50.743 11.8 250 8.8 101350 87
2002-03-12 17:44 51°15.013 2°51.067 12.2 249 8.8 101350 87
2002-03-12 17:45 51°14.97 2°51.392 12 254 8.9 101350 87
2002-03-12 17:46 51°14.912 2°51.715 11 251 8.8 101350 87
2002-03-12 17:47 51°14.859 2°52.04 11.8 251 8.9 101350 87
2002-03-12 17:48 51°14.81 2°52.367 10.8 252 8.8 101360 87
2002-03-12 17:49 51°14.75 2°52.689 11.8 251 8.8 101360 87
2002-03-12 17:50 51°14.69 2°53.013 11.8 254 8.8 101360 87
2002-03-12 17:51 51°14.631 2°53.334 11 250 8.9 101350 87
2002-03-12 17:52 51°14.574 2°53.658 12.4 251 8.9 101360 87
2002-03-12 17:53 51°14.525 2°53.991 11.8 250 8.9 101360 87
2002-03-12 17:54 51°14.475 2°54.318 11.5 250 8.9 101360 87
2002-03-12 17:55 51°14.43 2°54.637 12.2 253 8.9 101360 87
2002-03-12 17:56 51°14.386 2°54.924 11.1 258 9 101360 87
2002-03-12 17:57 51°14.299 2°55.176 8 252 9 101370 86
2002-03-12 17:58 51°14.18 2°55.364 6 258 9.1 101370 87
2002-03-12 17:59 51°14.07 2°55.448 3.3 262 9.2 101370 87
2002-03-12 18:00 51°13.968 2°55.52 3.4 259 9.2 101370 86
2002-03-12 18:01 51°13.862 2°55.597 5.1 264 9.3 101370 86
2002-03-12 18:02 51°13.781 2°55.671 2.9 282 9.4 101370 86
2002-03-12 18:02 51°13.742 2°55.736 4.3 278 9.5 101370 86
2002-03-12 18:04 51°13.717 2°55.793 1.9 221 9.5 101370 86
2002-03-12 18:05 51°13.702 2°55.841 3.1 234 9.6 101370 85
2002-03-12 18:06 51°13.695 2°55.885 3.5 260 9.7 101370 85
2002-03-12 18:07 51°13.689 2°55.901 2.4 296 9.7 101370 85
2002-03-12 18:08 51°13.689 2°55.905 2.7 291 9.7 101380 84
2002-03-12 18:09 51°13.689 2°55.905 1 278 9.7 101380 84
2002-03-12 18:10 51°13.689 2°55.905 2 276 9.7 101380 84